Skip Page Navigation
NASA JPL Caltech
NASA Logo - Jet Propulsion Laboratory + View the NASA Portal
+ Center for Near-Earth Object Studies
JPL Home Earth Solar System Stars & Galaxies Technology
JPL Solar System Dynamics
BODIES ORBITS EPHEMERIDES TOOLS PHYSICAL DATA DISCOVERY FAQ SITE MAP
JPL Small-Body Database Browser
Search: [ help ]  
5960 Wakkanai (1989 US)
Classification: Main-belt Asteroid          SPK-ID: 2005960
Ephemeris | Orbit Diagram | Orbital Elements | Mission Design | Physical Parameters | Discovery Circumstances ]

[ show orbit diagram ]
Orbital Elements at Epoch 2459000.5 (2020-May-31.0) TDB
Reference: JPL 37 (heliocentric ecliptic J2000)
 Element Value Uncertainty (1-sigma)   Units 
e .1540949604248587 3.8246e-08  
a 2.188486649657253 5.1324e-09 au
q 1.851251885987987 8.372e-08 au
i 4.318086196155531 3.9855e-06 deg
node 43.49365636925074 3.934e-05 deg
peri 330.9876000309414 4.0237e-05 deg
M 173.2322919200769 9.0256e-06 deg
tp 2458431.462837807147
(2018-Nov-08.96283781)
2.9135e-05 TDB
period 1182.535750805277
3.24
4.1599e-06
1.139e-08
d
yr
n .3044305423788238 1.0709e-09 deg/d
Q 2.525721413326519 5.9233e-09 au
  Orbit Determination Parameters
   # obs. used (total)      3438  
   data-arc span      16931 days (46.35 yr)  
   first obs. used      1973-12-20  
   last obs. used      2020-04-28  
   planetary ephem.      DE431  
   SB-pert. ephem.      SB431-N16  
   condition code      0  
   norm. resid. RMS      .39517  
   source      ORB  
   producer      Otto Matic  
   solution date      2020-May-20 02:27:55  

Additional Information
 Earth MOID = .853766 au 
 Jupiter MOID = 2.93715 au 
 T_jup = 3.656 
[ show covariance matrix ]

Ephemeris | Orbit Diagram | Orbital Elements | Mission Design | Physical Parameters | Discovery Circumstances ]

Physical Parameter Table
Parameter Symbol Value Units Sigma Reference Notes
absolute magnitude H 13.8   n/a MPO358688  
diameter diameter 4.665 km 0.089 urn:nasa:pds:neowise_diameters_albedos::2.0[mainbelt] (http://adsabs.harvard.edu/abs/2011ApJ...741...68M)  
rotation period rot_per 4.96286 h n/a LCDB (Rev. 2019-August); Warner et al., 2009 sidereal period (not synodic); Result based on less than full coverage, so that the period may be wrong by 30 percent or so.
Published Reference List:
[Hanus, J.; Durech, J.; Broz, M.; Marciniak, A.; et al. (2013) Astron. Astrophys. 551, A67.]
geometric albedo albedo 0.295   0.053 urn:nasa:pds:neowise_diameters_albedos::2.0[mainbelt] (http://adsabs.harvard.edu/abs/2011ApJ...741...68M)  

5960 Wakkanai (1989 US)          Discovered 1989-Oct-21 by Mukai and Takeishi at Kagoshima
Reference: DISCOVERY.DBLast Updated: 2003-08-29

Alternate Designations
 1989 US = 1934 VK = 1973 YU1 = 1976 UD1 
Ephemeris | Orbit Diagram | Orbital Elements | Mission Design | Physical Parameters | Discovery Circumstances ]
ABOUT SSD CREDITS/AWARDS PRIVACY/COPYRIGHT GLOSSARY LINKS
FirstGov 2020-Oct-28 10:00 UT
(server date/time)  
NASA Home Page
Site Manager:   Ryan S. Park
Webmaster  Alan B. Chamberlin